{"data":{"norad_id":62477,"epoch":"2026-09-21T13:30:46.865952Z","epoch_age_seconds":82815,"freshness":"FRESH","line1":"1 62477U 24254R   26264.56304243 -.00009053  00000+0 -32037-3 0  9996","line2":"2 62477  42.9989 349.7990 0000440 252.6577 107.4226 15.27529851 97612","mean_motion":15.27529851,"eccentricity":4.4e-5,"inclination_deg":42.9989,"raan_deg":349.799,"arg_perigee_deg":252.6577,"mean_anomaly_deg":107.4226,"bstar":-0.00032037,"rev_number":9761,"period_min":94.269843503045,"perigee_km":482.89736549927,"apogee_km":483.50116309053,"semimajor_km":6861.3362642949,"source":"CELESTRAK","updated_at":"2026-09-22T09:00:49.614124Z"}}